Location: Unspecified
(0.0000°N, 0.0000°E)
Time: 04:41:17
(UTC+00:00)

Envisat - Pass Details

Date: 23 May 2019
Orbit: 764 x 766 km, 98.2° (Epoch: 22 May)

Event Time Altitude Azimuth Distance (km) Brightness Sun altitude
Rises 20:04:43 0° 206° (SSW) 3,230 6.3 -29.7°
Reaches altitude 10° 20:08:42 10° 237° (WSW) 2,300 5.8 -30.6°
Maximum altitude 20:10:24 12° 257° (WSW) 2,185 5.9 -31.0°
Drops below altitude 10° 20:12:05 10° 277° (W) 2,296 6.3 -31.4°
Sets 20:16:05 0° 309° (NW) 3,217 7.3 -32.3°
